• In Czech Republic
  • List of Countries
  • For 7 days
  • Water Temperature
  • Satellite Maps
  • Weather Map
  • Weather Widgets
  • user-avatar
    Login

    Hourly Weather Jaunde

    Today, 20 June, Wednesday

    Time Temperature Precipitation Wind Pressure Humidity
    00:00 +21°C° 0.1 mm 1 mps 699 mmHg 97%
    01:00 +18°C° 0 mm 0 mps 699 mmHg 97%
    02:00 +18°C° 0.1 mm 0 mps 699 mmHg 97%
    03:00 +20°C° 0.1 mm 1 mps 699 mmHg 97%
    04:00 +20°C° 0.1 mm 1 mps 699 mmHg 98%
    05:00 +20°C° 0 mm 1 mps 699 mmHg 97%
    06:00 +20°C° 0 mm 1 mps 699 mmHg 96%
    07:00 +18°C° 0 mm 0 mps 699 mmHg 96%
    08:00 +22°C° 0 mm 1 mps 700 mmHg 91%
    09:00 +23°C° 0 mm 1 mps 700 mmHg 86%
    10:00 +24°C° 0 mm 1 mps 700 mmHg 80%
    11:00 +25°C° 0.2 mm 1 mps 700 mmHg 78%
    12:00 +26°C° 0.2 mm 2 mps 700 mmHg 76%
    13:00 +26°C° 0.2 mm 2 mps 700 mmHg 73%
    14:00 +26°C° 1.2 mm 2 mps 700 mmHg 80%
    15:00 +25°C° 1.2 mm 2 mps 699 mmHg 87%
    16:00 +24°C° 1.2 mm 2 mps 699 mmHg 93%
    17:00 +23°C° 0.9 mm 2 mps 699 mmHg 95%
    18:00 +21°C° 0.9 mm 2 mps 699 mmHg 96%
    19:00 +21°C° 0.9 mm 1 mps 699 mmHg 98%
    20:00 +21°C° 0.2 mm 1 mps 699 mmHg 98%
    21:00 +21°C° 0.2 mm 1 mps 700 mmHg 98%
    22:00 +21°C° 0.2 mm 1 mps 700 mmHg 99%
    23:00 +21°C° 0.1 mm 1 mps 700 mmHg 99%

    Tomorrow, 21 June, Thursday

    Time Temperature Precipitation Wind Pressure Humidity
    00:00 +20°C° 0.1 mm 1 mps 700 mmHg 99%
    01:00 +20°C° 0.1 mm 1 mps 700 mmHg 99%
    02:00 +18°C° 0 mm 0 mps 700 mmHg 99%
    03:00 +18°C° 0 mm 0 mps 700 mmHg 99%
    04:00 +18°C° 0 mm 0 mps 699 mmHg 99%
    05:00 +18°C° 0 mm 0 mps 699 mmHg 98%
    06:00 +18°C° 0 mm 0 mps 700 mmHg 98%
    07:00 +18°C° 0 mm 0 mps 700 mmHg 98%
    08:00 +20°C° 0 mm 0 mps 700 mmHg 92%
    09:00 +21°C° 0 mm 0 mps 701 mmHg 86%
    10:00 +24°C° 0 mm 1 mps 701 mmHg 80%
    11:00 +26°C° 0 mm 1 mps 701 mmHg 73%
    12:00 +27°C° 0 mm 1 mps 701 mmHg 66%
    13:00 +29°C° 0 mm 1 mps 700 mmHg 58%
    14:00 +28°C° 0.4 mm 1 mps 700 mmHg 64%
    15:00 +28°C° 0.4 mm 1 mps 699 mmHg 69%
    16:00 +27°C° 0.4 mm 1 mps 698 mmHg 75%
    17:00 +25°C° 0.6 mm 1 mps 699 mmHg 82%
    18:00 +24°C° 0.6 mm 1 mps 699 mmHg 89%
    19:00 +22°C° 0.6 mm 1 mps 699 mmHg 96%
    20:00 +22°C° 0.2 mm 1 mps 700 mmHg 97%
    21:00 +21°C° 0.2 mm 1 mps 700 mmHg 98%
    22:00 +21°C° 0.2 mm 1 mps 701 mmHg 98%
    23:00 +21°C° 0.1 mm 1 mps 701 mmHg 98%

    Day after tomorrow, 22 June, Friday

    Time Temperature Precipitation Wind Pressure Humidity
    00:00 +21°C° 0.1 mm 1 mps 701 mmHg 98%
    01:00 +21°C° 0.1 mm 1 mps 701 mmHg 98%
    02:00 +21°C° 0 mm 1 mps 700 mmHg 98%
    03:00 +21°C° 0 mm 1 mps 700 mmHg 97%
    04:00 +21°C° 0 mm 1 mps 700 mmHg 97%
    05:00 +21°C° 0 mm 1 mps 700 mmHg 97%
    06:00 +21°C° 0 mm 1 mps 700 mmHg 96%
    07:00 +21°C° 0 mm 1 mps 700 mmHg 96%
    08:00 +22°C° 0 mm 1 mps 701 mmHg 90%
    09:00 +23°C° 0 mm 1 mps 702 mmHg 84%
    10:00 +25°C° 0 mm 1 mps 702 mmHg 78%
    11:00 +26°C° 0 mm 1 mps 702 mmHg 71%
    12:00 +27°C° 0 mm 1 mps 702 mmHg 65%
    13:00 +29°C° 0 mm 1 mps 701 mmHg 59%
    14:00 +28°C° 0.2 mm 1 mps 700 mmHg 62%
    15:00 +28°C° 0.2 mm 1 mps 699 mmHg 65%
    16:00 +28°C° 0.2 mm 1 mps 698 mmHg 67%
    17:00 +26°C° 0.5 mm 1 mps 699 mmHg 76%
    18:00 +24°C° 0.5 mm 1 mps 699 mmHg 85%
    19:00 +22°C° 0.5 mm 1 mps 699 mmHg 93%
    20:00 +22°C° 0 mm 1 mps 699 mmHg 95%
    21:00 +22°C° 0 mm 1 mps 700 mmHg 96%
    22:00 +21°C° 0 mm 1 mps 700 mmHg 97%
    23:00 +21°C° 0.5 mm 1 mps 700 mmHg 97%

    23 June, Saturday

    Time Temperature Precipitation Wind Pressure Humidity
    00:00 +21°C° 0.5 mm 1 mps 700 mmHg 97%
    01:00 +21°C° 0.5 mm 1 mps 700 mmHg 97%
    02:00 +21°C° 0.7 mm 1 mps 700 mmHg 97%
    03:00 +21°C° 0.7 mm 1 mps 699 mmHg 98%
    04:00 +21°C° 0.7 mm 1 mps 699 mmHg 98%
    05:00 +21°C° 0.6 mm 1 mps 699 mmHg 98%
    06:00 +19°C° 0.6 mm 0 mps 700 mmHg 98%
    07:00 +19°C° 0.6 mm 0 mps 700 mmHg 98%
    08:00 +19°C° 0.5 mm 0 mps 701 mmHg 97%
    09:00 +19°C° 0.5 mm 0 mps 701 mmHg 96%
    10:00 +20°C° 0.5 mm 0 mps 701 mmHg 94%
    11:00 +20°C° 1 mm 0 mps 701 mmHg 94%
    12:00 +20°C° 1 mm 0 mps 700 mmHg 94%
    13:00 +20°C° 1 mm 0 mps 700 mmHg 94%
    14:00 +21°C° 0.2 mm 0 mps 699 mmHg 91%
    15:00 +23°C° 0.2 mm 1 mps 699 mmHg 88%
    16:00 +23°C° 0.2 mm 1 mps 698 mmHg 85%
    17:00 +23°C° 0 mm 1 mps 698 mmHg 89%
    18:00 +20°C° 0 mm 0 mps 698 mmHg 92%
    19:00 +19°C° 0 mm 0 mps 698 mmHg 95%
    20:00 +19°C° 0 mm 0 mps 699 mmHg 96%
    21:00 +18°C° 0 mm 0 mps 699 mmHg 96%
    22:00 +18°C° 0 mm 0 mps 699 mmHg 97%
    23:00 +18°C° 0 mm 0 mps 699 mmHg 97%

    24 June, Sunday

    Time Temperature Precipitation Wind Pressure Humidity
    00:00 +17°C° 0 mm 0 mps 699 mmHg 97%
    01:00 +17°C° 0 mm 0 mps 698 mmHg 97%
    02:00 +17°C° 0 mm 0 mps 698 mmHg 97%
    03:00 +17°C° 0 mm 0 mps 698 mmHg 96%
    04:00 +17°C° 0 mm 0 mps 697 mmHg 96%
    05:00 +17°C° 0 mm 0 mps 698 mmHg 95%
    06:00 +17°C° 0 mm 0 mps 699 mmHg 94%
    07:00 +18°C° 0 mm 0 mps 699 mmHg 94%
    08:00 +19°C° 0 mm 0 mps 700 mmHg 88%
    09:00 +21°C° 0 mm 0 mps 700 mmHg 82%
    10:00 +24°C° 0 mm 1 mps 701 mmHg 76%
    11:00 +25°C° 0 mm 1 mps 700 mmHg 69%
    12:00 +27°C° 0 mm 1 mps 700 mmHg 62%
    13:00 +28°C° 0 mm 1 mps 699 mmHg 56%
    14:00 +28°C° 0 mm 1 mps 699 mmHg 55%
    15:00 +28°C° 0 mm 1 mps 698 mmHg 54%
    16:00 +29°C° 0 mm 1 mps 697 mmHg 53%
    17:00 +27°C° 0 mm 1 mps 698 mmHg 63%
    18:00 +25°C° 0 mm 1 mps 698 mmHg 73%
    19:00 +23°C° 0 mm 1 mps 698 mmHg 82%
    20:00 +22°C° 0 mm 1 mps 698 mmHg 86%
    21:00 +21°C° 0 mm 1 mps 699 mmHg 89%
    22:00 +21°C° 0 mm 1 mps 699 mmHg 92%
    23:00 +21°C° 0 mm 1 mps 699 mmHg 94%

    25 June, Monday

    Time Temperature Precipitation Wind Pressure Humidity
    00:00 +21°C° 0 mm 1 mps 698 mmHg 96%
    01:00 +21°C° 0 mm 1 mps 698 mmHg 97%
    02:00 +21°C° 0 mm 1 mps 698 mmHg 97%
    03:00 +21°C° 0 mm 1 mps 698 mmHg 96%
    04:00 +21°C° 0 mm 1 mps 698 mmHg 96%
    05:00 +21°C° 0 mm 1 mps 698 mmHg 96%
    06:00 +21°C° 0 mm 1 mps 699 mmHg 95%
    07:00 +21°C° 0 mm 1 mps 699 mmHg 95%
    08:00 +23°C° 0 mm 1 mps 700 mmHg 84%
    09:00 +25°C° 0 mm 1 mps 700 mmHg 73%
    10:00 +27°C° 0 mm 1 mps 700 mmHg 63%
    11:00 +28°C° 0.1 mm 1 mps 700 mmHg 63%
    12:00 +28°C° 0.1 mm 1 mps 699 mmHg 63%
    13:00 +29°C° 0.1 mm 1 mps 699 mmHg 63%
    14:00 +29°C° 0.5 mm 1 mps 698 mmHg 65%
    15:00 +28°C° 0.5 mm 1 mps 698 mmHg 67%
    16:00 +28°C° 0.5 mm 1 mps 697 mmHg 69%
    17:00 +26°C° 0.3 mm 1 mps 697 mmHg 76%
    18:00 +25°C° 0.3 mm 1 mps 698 mmHg 83%
    19:00 +23°C° 0.3 mm 1 mps 698 mmHg 91%
    20:00 +22°C° 0.5 mm 1 mps 698 mmHg 93%
    21:00 +22°C° 0.5 mm 1 mps 699 mmHg 95%
    22:00 +22°C° 0.5 mm 1 mps 699 mmHg 97%
    23:00 +21°C° 0 mm 1 mps 699 mmHg 97%
    Show more